Location: Claremont
(33.9858°S, 18.4575°E)
Time: 11:31:16
(UTC+00:00)

Cosmos 1763 Rocket - Pass Details

Date: 03 March 2021
Orbit: 733 x 780 km, 74.0° (Epoch: 09 April)

Event Time Altitude Azimuth Distance (km) Brightness Sun altitude
Rises 18:32:00 0° 203° (SSW) 3,224 7.4 -15.4°
Reaches altitude 10° 18:34:25 10° 207° (SSW) 2,299 6.6 -15.8°
Maximum altitude 18:39:29 54° 283° (WNW) 923 4.2 -16.8°
Drops below altitude 10° 18:44:34 10° 359° (N) 2,300 5.8 -17.8°
Enters shadow 18:46:33 - 3° (N) 3,056 6.4 -18.2°
